EW1708 Weather Reports


Display with metric or nautical units.
time (UTC)temp
F
wind
direction
speed
MPH
gust
MPH
rain 1hr
in
rain 24hr
in
rain mn
in
humidity
%
barometer
mb
20260510133613 40 95 6.0 9.0 0.00 0.00 0.00 66 1021.8
20260510132542 39 102 6.0 9.0 0.00 0.00 0.00 70 1021.8
20260510131510 38 116 7.0 9.0 0.00 0.00 0.00 70 1021.9
20260510130458 36 116 6.0 10.0 0.00 0.00 0.00 73 1021.8
20260510125453 35 98 7.0 10.0 0.00 0.00 0.00 74 1021.8
20260510124441 34 110 6.0 9.0 0.00 0.00 0.00 77 1021.7
20260510123411 33 109 6.0 9.0 0.00 0.00 0.00 78 1021.6
20260510122414 32 94 6.0 9.0 0.00 0.00 0.00 78 1021.5
20260510121409 31 91 6.0 8.0 0.00 0.00 0.00 79 1021.5
20260510120421 30 90 5.0 8.0 0.00 0.00 0.00 80 1021.4
20260510115436 29 93 5.0 9.0 0.00 0.00 0.00 82 1021.5
20260510114431 29 88 4.0 9.0 0.00 0.00 0.00 83 1021.4
20260510113449 29 88 2.0 5.0 0.00 0.00 0.00 85 1021.3
20260510112420 29 92 1.0 5.0 0.00 0.00 0.00 85 1021.2
20260510110248 29 128 0.0 0.0 0.00 0.00 0.00 85 1021.2
20260510105236 29 128 0.0 0.0 0.00 0.00 0.00 86 1021.2
20260510103105 29 128 0.0 0.0 0.00 0.00 0.00 86 1021.0
20260510102115 29 128 0.0 0.0 0.00 0.00 0.00 87 1020.9
20260510095947 30 128 0.0 0.0 0.00 0.00 0.00 85 1020.9
20260510094943 30 128 0.0 0.0 0.00 0.00 0.00 83 1020.7
20260510094005 30 128 0.0 0.0 0.00 0.00 0.00 81 1020.7
20260510093011 30 128 0.0 0.0 0.00 0.00 0.00 79 1020.5
20260510090904 31 128 0.0 0.0 0.00 0.00 0.00 77 1020.4
20260510085835 31 128 0.0 0.0 0.00 0.00 0.00 75 1020.4
20260510084848 32 128 0.0 0.0 0.00 0.00 0.00 74 1020.3
20260510083823 32 128 0.0 0.0 0.00 0.00 0.00 73 1020.2
20260510082756 33 128 0.0 0.0 0.00 0.00 0.00 70 1020.1
20260510081807 34 128 0.0 2.0 0.00 0.00 0.00 68 1020.1
20260510080830 35 128 2.0 4.0 0.00 0.00 0.00 68 1020.2
20260510074646 35 102 1.0 2.0 0.00 0.00 0.00 66 1020.0
20260510073629 36 102 2.0 4.0 0.00 0.00 0.00 65 1019.8
20260510072624 37 85 3.0 5.0 0.00 0.00 0.00 64 1019.7
20260510071613 37 99 4.0 6.0 0.00 0.00 0.00 63 1019.7
20260510065508 37 86 3.0 6.0 0.00 0.00 0.00 64 1019.6
20260510064521 37 82 2.0 5.0 0.00 0.00 0.00 64 1019.6
20260510063511 37 86 1.0 5.0 0.00 0.00 0.00 63 1019.4
20260510062454 38 52 0.0 0.0 0.00 0.00 0.00 63 1019.2
20260510061515 38 51 0.0 0.0 0.00 0.00 0.00 63 1019.2
20260510060510 38 51 0.0 0.0 0.00 0.00 0.00 63 1019.1
20260510055439 39 51 0.0 0.0 0.00 0.00 0.00 62 1019.0
20260510054500 38 51 0.0 0.0 0.00 0.00 0.00 62 1019.0
20260510053515 39 50 0.0 0.0 0.00 0.00 0.00 62 1018.9
20260510052517 39 50 0.0 0.0 0.00 0.00 0.00 60 1018.7
20260510051537 40 52 1.0 3.0 0.00 0.00 0.00 59 1018.6
20260510050508 40 49 2.0 3.0 0.00 0.00 0.00 58 1018.5
20260510045517 40 49 1.0 3.0 0.00 0.00 0.00 56 1018.5
20260510044521 41 44 1.0 4.0 0.00 0.00 0.00 56 1018.4
20260510043537 41 45 1.0 5.0 0.00 0.00 0.00 54 1018.4
20260510042552 41 47 4.0 7.0 0.00 0.00 0.00 54 1018.3
20260510041525 41 41 4.0 7.0 0.00 0.00 0.00 54 1018.1
20260510040501 42 49 4.0 6.0 0.00 0.00 0.00 52 1018.1
20260510034359 43 36 4.0 6.0 0.00 0.00 0.00 51 1017.8
20260510032216 44 40 5.0 6.0 0.00 0.00 0.00 49 1017.6
20260510031219 45 36 4.0 6.0 0.00 0.00 0.00 49 1017.4
20260510030207 46 33 4.0 5.0 0.00 0.00 0.00 45 1017.1
20260510025145 47 30 4.0 5.0 0.00 0.00 0.00 44 1017.0
20260510024156 48 28 3.0 8.0 0.00 0.00 0.00 41 1016.8
20260510023157 49 11 5.0 8.0 0.00 0.00 0.00 38 1016.7
20260510022200 50 351 5.0 7.0 0.00 0.00 0.00 37 1016.5
20260510021214 52 351 5.0 8.0 0.00 0.00 0.00 34 1016.3
20260510020203 53 346 6.0 12.0 0.00 0.00 0.00 33 1016.2
20260510015153 54 350 7.0 15.0 0.00 0.00 0.00 31 1016.1
20260510014203 55 15 8.0 18.0 0.00 0.00 0.00 30 1016.0
20260510013146 56 18 10.0 18.0 0.00 0.00 0.00 29 1015.9
20260510011007 57 330 11.0 19.0 0.00 0.00 0.00 28 1015.6
20260510010010 57 0 11.0 19.0 0.00 0.00 0.00 27 1015.5
20260510004950 58 323 12.0 21.0 0.00 0.00 0.00 27 1015.4
20260510003952 58 0 12.0 22.0 0.00 0.00 0.00 27 1015.5
20260510002934 58 331 14.0 22.0 0.00 0.00 0.00 27 1015.3
20260510000802 59 340 14.0 22.0 0.00 0.00 0.00 26 1015.2
20260509235815 59 316 14.0 22.0 0.00 0.00 0.00 25 1015.2
20260509233640 59 319 15.0 27.0 0.00 0.00 0.00 25 1015.0
20260509232614 59 0 13.0 22.0 0.00 0.00 0.00 25 1015.0
20260509231621 59 317 16.0 23.0 0.00 0.00 0.00 24 1014.9
20260509230619 60 305 15.0 23.0 0.00 0.00 0.00 25 1014.8
20260509225554 60 297 15.0 25.0 0.00 0.00 0.00 24 1014.7
20260509224518 59 331 15.0 25.0 0.00 0.00 0.00 24 1014.7
20260509223446 60 296 15.0 27.0 0.00 0.00 0.00 25 1014.8
20260509222416 59 0 16.0 27.0 0.00 0.00 0.00 24 1014.8
20260509221358 60 319 15.0 26.0 0.00 0.00 0.00 24 1014.7
20260509220344 59 317 16.0 26.0 0.00 0.00 0.00 24 1014.8
20260509215333 59 333 16.0 29.0 0.00 0.00 0.00 26 1014.9
20260509214306 59 0 17.0 29.0 0.00 0.00 0.00 25 1014.8
20260509213327 59 309 15.0 26.0 0.00 0.00 0.00 24 1015.0
20260509212259 59 333 17.0 26.0 0.00 0.00 0.00 24 1014.9
20260509211238 59 0 15.0 30.0 0.00 0.00 0.00 25 1014.8
20260509210238 59 336 18.0 30.0 0.00 0.00 0.00 24 1014.9
20260509205237 59 297 14.0 26.0 0.00 0.00 0.00 25 1014.9
20260509204208 58 306 15.0 25.0 0.00 0.00 0.00 25 1014.8
20260509203202 58 317 14.0 25.0 0.00 0.00 0.00 26 1014.9
20260509195926 57 299 13.0 22.0 0.00 0.00 0.00 26 1014.9
20260509194923 56 294 15.0 24.0 0.00 0.00 0.00 29 1015.0
20260509193913 57 285 15.0 24.0 0.00 0.00 0.00 29 1014.9
20260509192911 56 299 13.0 22.0 0.00 0.00 0.00 29 1015.0
20260509191906 56 300 12.0 21.0 0.00 0.00 0.00 31 1015.0
20260509190850 56 302 13.0 21.0 0.00 0.00 0.00 31 1015.0
20260509183605 54 306 12.0 21.0 0.00 0.00 0.00 31 1015.2
20260509182618 54 293 11.0 21.0 0.00 0.00 0.00 34 1015.1
20260509181624 53 285 10.0 21.0 0.00 0.00 0.00 35 1015.0
20260509180640 53 0 9.0 20.0 0.00 0.00 0.00 35 1015.1
20260509175624 53 0 9.0 19.0 0.00 0.00 0.00 36 1015.1
20260509174604 52 0 9.0 21.0 0.00 0.00 0.00 36 1015.2
20260509173600 52 289 8.0 21.0 0.00 0.00 0.00 37 1015.3
20260509172522 51 320 9.0 22.0 0.00 0.00 0.00 39 1015.2
20260509171447 51 0 10.0 22.0 0.00 0.00 0.00 38 1015.2
20260509170504 50 277 7.0 17.0 0.00 0.00 0.00 41 1015.2
20260509165446 50 0 8.0 15.0 0.00 0.00 0.00 40 1015.1
20260509164446 50 0 7.0 17.0 0.00 0.00 0.00 39 1015.1
20260509163430 50 38 7.0 17.0 0.00 0.00 0.00 44 1015.2
20260509162402 49 0 7.0 17.0 0.00 0.00 0.00 43 1015.3
20260509161332 49 295 8.0 17.0 0.00 0.00 0.00 42 1015.3
20260509155207 48 0 6.0 12.0 0.00 0.00 0.00 47 1015.2
20260509151925 46 0 4.0 8.0 0.00 0.00 0.00 48 1015.1
20260509150932 46 306 3.0 7.0 0.00 0.00 0.00 52 1015.0
20260509145954 45 325 3.0 6.0 0.00 0.00 0.00 56 1015.0
20260509144944 44 0 2.0 6.0 0.00 0.00 0.00 61 1015.0
20260509143955 43 11 2.0 6.0 0.00 0.00 0.00 63 1014.9
20260509142923 42 317 3.0 6.0 0.00 0.00 0.00 66 1014.9
20260509141913 41 0 3.0 6.0 0.00 0.00 0.00 70 1014.9
20260509135752 38 315 4.0 7.0 0.00 0.00 0.00 78 1014.9